Weather History for KFMY - November, 2011

Change the Weather History Date:

Thursday, November 17, 2011

  Actual Average Record
Temperature  
Mean Temperature 77 °F 71 °F  
Max Temperature 86 °F 81 °F 91 °F (1988)
Min Temperature 68 °F 62 °F 34 °F (1940)
Degree Days  
Heating Degree Days 0 1  
Month to date heating degree days 2 2  
Since 1 July heating degree days 2 4  
Cooling Degree Days 12 7  
Month to date cooling degree days 125 138  
Year to date cooling degree days 3986 3786  
Growing Degree Days 26 (Base 50)    
Moisture  
Dew Point 69 °F    
Average Humidity 84    
Maximum Humidity 97    
Minimum Humidity 51    
Precipitation  
Precipitation 0.00 in 0.07 in 1.40 in (1915)
Month to date precipitation T 1.35  
Year to date precipitation 65.17 53.61  
Sea Level Pressure  
Sea Level Pressure 30.03 in    
Wind  
Wind Speed 5 mph (WNW)    
Max Wind Speed 15 mph    
Max Gust Speed 23 mph    
Visibility 6 miles    
Events Fog    
T = Trace of Precipitation, MM = Missing Value Source: NWS Daily Summary

Daily Weather History Graph

Daily Weather History Graph

Search for Another Location

Airport or City:

Trip Planner

Search our weather history database for the weather conditions in past years. The results will help you decide how hot, cold, wet, or windy it might be!

Date:

Astronomy

Nov. 17, 2011 Rise Set
Actual Time 6:47 AM EST 5:36 PM EST
Civil Twilight 6:23 AM EST 6:01 PM EST
Nautical Twilight 5:55 AM EST 6:29 PM EST
Astronomical Twilight 5:27 AM EST 6:56 PM EST
Moon 11:43 PM EST (11/17) 12:05 PM EST (11/17)
Length of Visible Light 11h 37m
Length of Day
10h 48m
Waning Gibbous, 60% of the Moon is Illuminated
Nov 17
Waning Gibbous
Nov 18
Last Quarter
Nov 25
New
Dec 2
First Quarter
Dec 10
Full

Hourly Weather History & Observations

Time (EST) Temp. Heat Index Dew Point Humidity Pressure Visibility Wind Dir Wind Speed Gust Speed Precip Events Conditions
12:53 AM 72.0 °F - 69.1 °F 91% 30.01 in 9.0 mi NNW 3.5 mph - N/A   Clear
1:53 AM 71.1 °F - 69.1 °F 93% 30.00 in 6.0 mi Calm Calm - N/A   Clear
2:53 AM 71.1 °F - 69.1 °F 93% 30.01 in 5.0 mi Calm Calm - N/A   Clear
3:02 AM 71.6 °F - 68.0 °F 88% 30.00 in 1.8 mi Calm Calm - N/A   Clear
3:04 AM 71.6 °F - 68.0 °F 88% 30.00 in 1.0 mi Calm Calm - N/A   Mist
3:11 AM 71.6 °F - 68.0 °F 88% 30.00 in 0.8 mi Calm Calm - N/A   Mist
3:38 AM 69.8 °F - 68.0 °F 94% 30.00 in 2.0 mi Calm Calm - N/A   Overcast
3:45 AM 69.8 °F - 68.0 °F 94% 30.00 in 8.0 mi Calm Calm - N/A   Overcast
3:53 AM 70.0 °F - 68.0 °F 93% 30.00 in 4.0 mi Calm Calm - N/A   Overcast
3:56 AM 69.8 °F - 68.0 °F 94% 30.00 in 2.0 mi Calm Calm - N/A   Overcast
4:00 AM 69.8 °F - 68.0 °F 94% 30.00 in 0.8 mi Calm Calm - N/A   Mist
4:30 AM 69.8 °F - 66.2 °F 88% 30.00 in 0.2 mi Calm Calm - N/A Fog Fog
4:53 AM 69.1 °F - 66.9 °F 93% 30.01 in 0.8 mi Calm Calm - N/A   Mist
4:58 AM 69.8 °F - 66.2 °F 88% 30.00 in 3.0 mi Calm Calm - N/A   Mostly Cloudy
5:13 AM 69.8 °F - 66.2 °F 88% 30.00 in 1.8 mi SSE 3.5 mph - N/A   Mostly Cloudy
5:18 AM 69.8 °F - 68.0 °F 94% 30.00 in 0.8 mi SSE 3.5 mph - N/A   Mist
5:32 AM 69.8 °F - 68.0 °F 94% 30.01 in 1.5 mi SSE 3.5 mph - N/A   Overcast
5:49 AM 68.0 °F - 66.2 °F 94% 30.01 in 0.5 mi Calm Calm - N/A Fog Fog
5:53 AM 68.0 °F - 66.9 °F 96% 30.02 in 0.5 mi Calm Calm - N/A Fog Fog
6:17 AM 69.8 °F - 66.2 °F 88% 30.03 in 0.8 mi Calm Calm - N/A   Mist
6:38 AM 69.8 °F - 66.2 °F 88% 30.04 in 2.0 mi Calm Calm - N/A   Overcast
6:45 AM 69.8 °F - 68.0 °F 94% 30.05 in 1.0 mi Calm Calm - N/A   Overcast
6:53 AM 70.0 °F - 68.0 °F 93% 30.06 in 1.0 mi Calm Calm - N/A   Mist
7:00 AM 71.6 °F - 69.8 °F 94% 30.06 in 0.5 mi Calm Calm - N/A Fog Fog
7:11 AM 71.6 °F - 69.8 °F 94% 30.06 in 0.2 mi Calm Calm - N/A Fog Fog
7:44 AM 71.6 °F - 69.8 °F 94% 30.07 in 0.2 mi Calm Calm - N/A Fog Fog
7:53 AM 72.0 °F - 70.0 °F 93% 30.09 in 0.2 mi Calm Calm - N/A Fog Fog
8:08 AM 71.6 °F - 69.8 °F 94% 30.07 in 2.0 mi Calm Calm - N/A   Overcast
8:17 AM 71.6 °F - 69.8 °F 94% 30.07 in 4.0 mi Calm Calm - N/A   Overcast
8:39 AM 73.4 °F - 71.6 °F 94% 30.08 in 6.0 mi Calm Calm - N/A   Mostly Cloudy
9:00 AM 77.0 °F - 73.4 °F 89% 30.08 in 9.0 mi Calm Calm - N/A   Partly Cloudy
9:12 AM 77.0 °F - 73.4 °F 89% 30.08 in 10.0 mi Calm Calm - N/A   Mostly Cloudy
9:20 AM 78.8 °F - 73.4 °F 83% 30.08 in 10.0 mi Calm Calm - N/A   Mostly Cloudy
9:41 AM 78.8 °F - 73.4 °F 83% 30.08 in 10.0 mi WSW 3.5 mph - N/A   Overcast
9:49 AM 78.8 °F - 71.6 °F 78% 30.08 in 10.0 mi West 4.6 mph - N/A   Overcast
9:53 AM 78.1 °F - 72.0 °F 81% 30.09 in 10.0 mi West 4.6 mph - N/A   Mostly Cloudy
10:08 AM 78.8 °F - 71.6 °F 78% 30.08 in 10.0 mi WSW 3.5 mph - N/A   Mostly Cloudy
10:48 AM 82.4 °F 87.2 °F 71.6 °F 70% 30.07 in 10.0 mi WNW 3.5 mph - N/A   Mostly Cloudy
10:53 AM 82.0 °F 86.3 °F 71.1 °F 69% 30.07 in 10.0 mi Calm Calm - N/A   Mostly Cloudy
11:00 AM 82.4 °F 87.2 °F 71.6 °F 70% 30.06 in 10.0 mi Calm Calm - N/A   Scattered Clouds
11:53 AM 82.0 °F 84.9 °F 68.0 °F 62% 30.05 in 10.0 mi WNW 4.6 mph - N/A   Scattered Clouds
12:53 PM 84.9 °F 89.4 °F 70.0 °F 61% 30.00 in 10.0 mi Variable 6.9 mph - N/A   Partly Cloudy
1:53 PM 84.0 °F 86.5 °F 66.9 °F 56% 29.98 in 10.0 mi WSW 6.9 mph - N/A   Clear
2:53 PM 84.0 °F 85.8 °F 64.9 °F 53% 29.96 in 10.0 mi WSW 3.5 mph - N/A   Clear
3:53 PM 82.0 °F 85.9 °F 70.0 °F 67% 29.97 in 10.0 mi NW 16.1 mph - N/A   Partly Cloudy
4:53 PM 80.1 °F 82.7 °F 68.0 °F 67% 29.99 in 10.0 mi NW 9.2 mph - N/A   Clear
5:53 PM 77.0 °F - 69.1 °F 76% 30.00 in 10.0 mi NW 6.9 mph - N/A   Clear
6:53 PM 75.9 °F - 70.0 °F 82% 30.02 in 10.0 mi NW 5.8 mph - N/A   Overcast
7:53 PM 77.0 °F - 70.0 °F 79% 30.04 in 10.0 mi NNW 5.8 mph - N/A   Overcast
8:53 PM 75.9 °F - 66.9 °F 74% 30.06 in 10.0 mi North 10.4 mph - N/A   Clear
9:53 PM 73.9 °F - 66.9 °F 79% 30.07 in 10.0 mi North 11.5 mph - N/A   Clear
10:53 PM 72.0 °F - 66.0 °F 81% 30.09 in 10.0 mi NNE 10.4 mph - N/A   Clear
11:53 PM 71.1 °F - 64.9 °F 81% 30.08 in 10.0 mi NNE 11.5 mph - N/A   Clear